Salem, IL

4:56 PM CDT on August 19, 2017 (GMT -0500)
Salem-Leckrone

Weather History for KSLO - February, 2013

Change the Weather History Date:

Monday, February 18, 2013

  Actual Average Record
Temperature  
Mean Temperature 46 °F -  
Max Temperature 55 °F 46 °F 71 °F (1961)
Min Temperature 36 °F 27 °F -6 °F (1993)
Degree Days  
Heating Degree Days 20    
Moisture  
Dew Point 39 °F    
Average Humidity 78    
Maximum Humidity 95    
Minimum Humidity 60    
Precipitation  
Precipitation 0.10 in - - ()
Sea Level Pressure  
Sea Level Pressure 29.81 in    
Wind  
Wind Speed 14 mph (South)    
Max Wind Speed 26 mph    
Max Gust Speed 39 mph    
Visibility 9 miles    
Events Rain    
Averages and records for this station are not official NWS values.
T = Trace of Precipitation, MM = Missing Value Source: NWS Daily Summary

Daily Weather History Graph

Daily Weather History Graph

Search for Another Location

Airport or City:

Trip Planner

Search our weather history database for the weather conditions in past years. The results will help you decide how hot, cold, wet, or windy it might be!

Date:

Astronomy

Feb. 18, 2013 Rise Set
Actual Time 6:42 AM CST 5:37 PM CST
Civil Twilight 6:15 AM CST 6:04 PM CST
Nautical Twilight 5:44 AM CST 6:35 PM CST
Astronomical Twilight 5:13 AM CST 7:06 PM CST
Moon 11:25 AM CST (2/18) 1:20 AM CST (2/18)
Length of Visible Light 11h 48m
Length of Day
10h 54m
First Quarter, 58% of the Moon is Illuminated
Feb 18
First Quarter
Feb 25
Full
Mar 4
Last Quarter
Mar 11
New
Mar 19
First Quarter

Hourly Weather History & Observations

Time (CST) Temp. Windchill Dew Point Humidity Pressure Visibility Wind Dir Wind Speed Gust Speed Precip Events Conditions
12:15 AM 36.9 °F 29.6 °F 24.8 °F 62% 30.00 in 10.0 mi SE 10.4 mph - N/A   Clear
12:35 AM 37.4 °F 30.8 °F 24.6 °F 60% 30.00 in 10.0 mi SE 9.2 mph - N/A   Clear
12:55 AM 37.2 °F 31.2 °F 24.8 °F 61% 29.98 in 10.0 mi SE 8.1 mph - N/A   Clear
1:15 AM 37.0 °F 30.4 °F 24.8 °F 61% 29.97 in 10.0 mi SE 9.2 mph - N/A   Clear
1:35 AM 36.9 °F 29.6 °F 25.0 °F 62% 29.97 in 10.0 mi SE 10.4 mph - N/A   Clear
1:55 AM 36.9 °F 31.4 °F 25.3 °F 63% 29.96 in 10.0 mi SSE 6.9 mph - N/A   Clear
2:15 AM 37.0 °F 31.0 °F 25.3 °F 63% 29.96 in 10.0 mi SSE 8.1 mph - N/A   Clear
2:35 AM 37.0 °F 30.4 °F 25.7 °F 64% 29.94 in 10.0 mi SE 9.2 mph - N/A   Clear
2:55 AM 37.4 °F 32.1 °F 26.2 °F 64% 29.95 in 10.0 mi SSE 6.9 mph - N/A   Clear
3:15 AM 37.9 °F 31.5 °F 26.4 °F 63% 29.94 in 10.0 mi SSE 9.2 mph - N/A   Clear
3:35 AM 38.3 °F 31.9 °F 26.8 °F 63% 29.93 in 10.0 mi SSE 9.2 mph - N/A   Clear
3:55 AM 38.3 °F 32.5 °F 27.3 °F 65% 29.93 in 10.0 mi SSE 8.1 mph - N/A   Clear
4:15 AM 38.5 °F 32.7 °F 27.5 °F 65% 29.93 in 10.0 mi SSE 8.1 mph - N/A   Clear
4:35 AM 39.2 °F 33.6 °F 28.4 °F 65% 29.92 in 10.0 mi SSE 8.1 mph - N/A   Clear
4:55 AM 39.6 °F 33.0 °F 29.3 °F 67% 29.92 in 10.0 mi SSE 10.4 mph 16.1 mph N/A   Clear
5:15 AM 40.5 °F 34.1 °F 30.4 °F 67% 29.91 in 10.0 mi SSE 10.4 mph - N/A   Clear
5:35 AM 40.8 °F 34.5 °F 31.1 °F 68% 29.91 in 10.0 mi SSE 10.4 mph 16.1 mph N/A   Clear
5:55 AM 42.1 °F 35.7 °F 32.2 °F 68% 29.90 in 10.0 mi SSE 11.5 mph 19.6 mph N/A   Clear
6:15 AM 42.3 °F 35.9 °F 32.9 °F 69% 29.90 in 10.0 mi South 11.5 mph - N/A   Clear
6:35 AM 42.3 °F 35.9 °F 33.4 °F 71% 29.90 in 10.0 mi South 11.5 mph - N/A   Clear
6:55 AM 42.8 °F 35.8 °F 34.3 °F 72% 29.89 in 10.0 mi South 13.8 mph 17.3 mph N/A   Clear
7:15 AM 42.4 °F 36.1 °F 34.7 °F 74% 29.89 in 10.0 mi South 11.5 mph 18.4 mph N/A   Clear
7:35 AM 43.5 °F 37.5 °F 36.0 °F 75% 29.89 in 10.0 mi South 11.5 mph - N/A   Clear
7:55 AM 44.6 °F 37.8 °F 37.4 °F 76% 29.89 in 10.0 mi South 15.0 mph 21.9 mph N/A   Clear
8:15 AM 45.9 °F 38.8 °F 37.8 °F 73% 29.88 in 10.0 mi South 17.3 mph 23.0 mph N/A   Clear
8:35 AM 46.8 °F - 38.7 °F 73% 29.88 in 10.0 mi South 13.8 mph 24.2 mph N/A   Clear
8:55 AM 48.2 °F - 39.2 °F 71% 29.88 in 10.0 mi South 15.0 mph 20.7 mph N/A   Clear
9:15 AM 49.6 °F - 41.5 °F 74% 29.86 in 10.0 mi South 18.4 mph 24.2 mph N/A   Clear
9:35 AM 51.8 °F - 43.7 °F 74% 29.85 in 10.0 mi South 24.2 mph 29.9 mph N/A   Clear
9:55 AM 52.7 °F - 44.8 °F 74% 29.86 in 10.0 mi South 19.6 mph 31.1 mph N/A   Scattered Clouds
10:15 AM 54.0 °F - 45.1 °F 72% 29.85 in 10.0 mi SSW 26.5 mph 32.2 mph N/A   Scattered Clouds
10:35 AM 55.4 °F - 46.0 °F 71% 29.85 in 10.0 mi South 26.5 mph 39.1 mph N/A   Scattered Clouds
10:55 AM 55.8 °F - 46.2 °F 70% 29.85 in 10.0 mi SSW 24.2 mph 31.1 mph N/A   Mostly Cloudy
11:15 AM 55.9 °F - 46.0 °F 69% 29.85 in 10.0 mi SSW 26.5 mph 39.1 mph N/A   Overcast
11:35 AM 55.8 °F - 46.0 °F 70% 29.85 in 10.0 mi SSW 20.7 mph 29.9 mph N/A   Overcast
11:55 AM 55.4 °F - 46.4 °F 72% 29.85 in 10.0 mi SSW 23.0 mph 29.9 mph N/A   Overcast
12:15 PM 55.4 °F - 45.5 °F 69% 29.83 in 10.0 mi SSW 24.2 mph 34.5 mph N/A   Overcast
12:35 PM 55.2 °F - 45.5 °F 70% 29.81 in 10.0 mi South 23.0 mph 28.8 mph N/A   Overcast
12:55 PM 54.5 °F - 45.0 °F 70% 29.80 in 10.0 mi South 23.0 mph 33.4 mph N/A   Overcast
1:15 PM 54.0 °F - 45.7 °F 74% 29.79 in 10.0 mi South 18.4 mph 29.9 mph N/A Rain Light Rain
1:35 PM 52.9 °F - 46.2 °F 78% 29.78 in 7.0 mi South 19.6 mph 27.6 mph N/A Rain Rain
1:55 PM 51.4 °F - 46.9 °F 85% 29.78 in 5.0 mi South 19.6 mph - N/A Rain Heavy Rain
2:15 PM 50.5 °F - 47.3 °F 89% 29.76 in 5.0 mi South 20.7 mph 31.1 mph 0.01 in Rain Rain
2:35 PM 50.0 °F - 47.8 °F 92% 29.75 in 3.0 mi South 15.0 mph 32.2 mph 0.03 in Rain Heavy Rain
2:55 PM 50.4 °F - 48.2 °F 92% 29.75 in 5.0 mi South 15.0 mph 23.0 mph 0.05 in Rain Light Rain
3:15 PM 50.5 °F - 48.2 °F 92% 29.73 in 5.0 mi South 20.7 mph 28.8 mph N/A Rain Light Rain
3:35 PM 50.2 °F - 47.8 °F 92% 29.72 in 10.0 mi South 16.1 mph 29.9 mph N/A Rain Light Rain
3:55 PM 50.2 °F - 47.7 °F 91% 29.70 in 10.0 mi South 18.4 mph 26.5 mph N/A   Overcast
4:15 PM 50.2 °F - 47.5 °F 90% 29.69 in 10.0 mi South 18.4 mph 28.8 mph N/A   Overcast
4:35 PM 50.0 °F - 47.5 °F 91% 29.66 in 10.0 mi South 25.3 mph 33.4 mph N/A   Overcast
4:55 PM 50.0 °F - 47.7 °F 92% 29.65 in 5.0 mi South 18.4 mph 28.8 mph N/A   Overcast
5:15 PM 50.0 °F - 47.8 °F 92% 29.64 in 5.0 mi South 19.6 mph 29.9 mph N/A Rain Rain
5:35 PM 50.0 °F - 48.2 °F 94% 29.64 in 7.0 mi South 20.7 mph 29.9 mph N/A Rain Rain
5:55 PM 50.0 °F - 48.2 °F 94% 29.63 in 7.0 mi South 21.9 mph 29.9 mph 0.01 in Rain Rain
6:15 PM 50.0 °F - 48.2 °F 94% 29.62 in 7.0 mi South 23.0 mph 31.1 mph 0.01 in Rain Rain
6:35 PM 50.2 °F - 48.6 °F 94% 29.64 in 5.0 mi South 18.4 mph 27.6 mph 0.02 in Rain Rain
6:55 PM 50.2 °F - 48.6 °F 94% 29.63 in 5.0 mi South 18.4 mph 29.9 mph 0.03 in Rain Heavy Rain
7:15 PM 50.0 °F - 48.2 °F 94% 29.63 in 7.0 mi South 20.7 mph 26.5 mph N/A Rain Rain
7:35 PM 50.0 °F - 48.6 °F 95% 29.61 in 7.0 mi South 20.7 mph 34.5 mph 0.01 in Rain Rain
7:55 PM 50.2 °F - 48.6 °F 94% 29.60 in 10.0 mi South 15.0 mph 24.2 mph 0.01 in Rain Rain
8:15 PM 50.0 °F - 48.4 °F 94% 29.61 in 10.0 mi SSW 18.4 mph - N/A Rain Light Rain
8:35 PM 50.0 °F - 48.6 °F 95% 29.62 in 10.0 mi South 11.5 mph 18.4 mph N/A Rain Rain
8:55 PM 50.0 °F - 48.2 °F 94% 29.65 in 5.0 mi WNW 26.5 mph 36.8 mph N/A Rain Heavy Rain
9:15 PM 43.2 °F 33.8 °F 41.4 °F 93% 29.68 in 10.0 mi WNW 24.2 mph 38.0 mph N/A Rain Light Rain
9:35 PM 41.0 °F 31.9 °F 39.2 °F 93% 29.73 in 10.0 mi WNW 19.6 mph 32.2 mph N/A   Overcast
9:55 PM 40.3 °F 31.9 °F 37.4 °F 89% 29.76 in 10.0 mi WNW 16.1 mph 33.4 mph N/A   Overcast
10:15 PM 40.3 °F 31.0 °F 36.7 °F 87% 29.76 in 10.0 mi WNW 19.6 mph 25.3 mph N/A   Overcast
10:35 PM 39.9 °F 30.5 °F 35.6 °F 85% 29.78 in 10.0 mi WNW 19.6 mph 33.4 mph N/A   Overcast
10:55 PM 39.2 °F 29.0 °F 35.6 °F 87% 29.79 in 10.0 mi WNW 21.9 mph 29.9 mph N/A   Overcast
11:15 PM 39.4 °F 29.2 °F 35.1 °F 84% 29.80 in 10.0 mi WNW 21.9 mph 33.4 mph N/A   Overcast
11:35 PM 38.3 °F 28.4 °F 33.6 °F 83% 29.84 in 10.0 mi WNW 19.6 mph 28.8 mph N/A   Overcast
11:55 PM 37.4 °F 27.5 °F 32.4 °F 82% 29.85 in 10.0 mi WNW 18.4 mph 31.1 mph N/A   Overcast